Temperature
14 13 13 13 13 13 12 12 12 12 12 12 12 12 12 12 12 11 11 11 11 11 11 11 11 11 11 11 11 10 10 10 10 10 10 10 10 10 10 9 10 10 10
13 13 13 13 13 12 12 12 12 12 12 12 12 12 11 11 11 11 11 11 11 11 10 10 10 10 10 10 10 10 10 10 9 8 8 8 8 9 9 9 9 9 9
13 12 12 12 12 12 12 12 12 12 11 11 11 11 11 11 10 11 11 10 10 10 10 10 10 10 10 10 9 9 9 9 9 8 7 7 7 7 8 8 8 8 8
12 12 12 12 12 12 12 12 11 11 11 11 10 10 10 10 10 10 10 10 10 10 9 9 9 9 9 9 9 9 8 8 8 8 7 7 6 6 6 7 7 7 7
12 12 12 12 12 12 12 11 11 11 10 10 10 10 10 10 10 9 9 9 9 9 9 9 9 9 9 8 8 8 8 8 8 7 7 6 6 6 6 6 6 6 7
11 12 12 11 11 11 11 11 10 10 10 10 9 9 9 9 9 9 9 9 9 9 9 8 8 8 8 8 8 8 7 7 7 7 6 6 6 5 5 5 5 5 6
10 11 10 10 10 10 10 10 10 10 9 9 9 9 8 8 8 8 8 8 8 8 8 8 8 8 8 7 7 7 7 7 6 6 6 6 5 5 5 5 5 5 5
9 10 10 10 10 10 10 9 9 9 9 9 8 8 8 8 8 8 8 8 8 7 7 7 7 7 7 7 7 7 6 6 6 6 5 5 5 5 5 4 4 4 4
8 9 9 9 9 9 9 9 9 9 8 8 8 8 7 7 7 7 7 7 7 7 7 7 7 7 7 7 6 6 6 6 6 5 5 5 5 5 4 4 4 4 3
7 8 8 8 8 8 8 8 8 8 8 8 7 7 7 7 7 7 7 6 6 6 6 6 6 6 6 6 6 6 6 5 5 5 5 5 4 4 4 4 4 4 3
6 7 7 7 7 8 7 7 7 7 7 7 7 7 6 6 6 6 6 6 6 6 6 6 6 6 6 6 5 5 5 5 5 5 4 4 4 4 4 4 4 3 3
6 6 6 6 6 7 7 7 7 7 6 6 6 6 6 6 6 6 6 6 5 5 5 5 5 5 5 5 5 5 5 5 4 4 4 4 4 4 4 3 3 3 3
5 5 5 5 6 6 6 6 6 6 6 6 5 5 5 5 5 5 5 5 5 5 5 5 5 5 5 5 5 5 4 4 4 4 4 4 3 3 3 3 3 3 3
4 5 5 5 5 5 5 5 5 5 5 5 5 5 5 5 5 5 5 4 4 5 4 4 4 4 4 4 4 4 4 4 4 3 3 3 3 3 3 3 3 3 3
4 4 4 4 4 4 4 4 4 4 4 4 4 4 4 4 4 4 4 4 4 4 4 4 4 4 4 4 4 3 3 3 3 3 3 3 3 2 2 2 2 2 2
3 3 3 3 3 4 4 4 4 4 4 4 4 4 4 4 4 4 4 4 3 3 3 3 3 3 3 3 3 3 3 3 3 3 3 2 2 2 2 2 2 2 2
3 3 3 3 3 3 3 3 3 3 3 3 3 3 3 3 3 3 3 3 3 3 3 3 2 3 3 2 2 2 2 2 2 2 2 2 2 2 2 2 2 2 1
2 2 2 2 2 2 2 3 3 3 3 3 3 2 2 2 2 3 3 2 2 2 2 2 2 2 2 2 2 2 2 2 2 1 1 1 1 1 1 1 1 1 1
2 2 2 2 2 2 2 2 2 2 2 2 2 2 2 2 2 2 2 2 2 2 1 1 1 1 1 1 1 1 1 1 1 1 1 1 1 1 0 0 0 0 0
1 1 1 1 1 1 1 1 1 1 1 1 1 1 1 1 1 1 1 1 1 1 1 1 1 1 1 1 1 0 0 0 -0 -0 0 -0 -0 -0 -0 -0 -0 -0 -0
1 1 1 1 1 1 1 1 1 1 1 1 1 1 1 1 1 1 1 0 0 0 0 0 0 0 0 0 -0 -0 -1 -1 -1 -1 -1 -1 -1 -1 -1 -1 -1 -1 -1
-0 -0 0 0 -0 -0 -0 0 0 0 0 0 0 0 0 0 0 0 0 -0 -0 -0 -0 -0 -0 -0 -1 -1 -1 -1 -1 -1 -1 -1 -1 -1 -1 -1 -1 -1 -1 -1 -1
-1 -1 -1 -1 -1 -1 -1 -1 -1 -1 -0 -0 -0 -0 -0 -0 -0 -0 -0 -0 -1 -1 -1 -1 -1 -1 -1 -1 -2 -2 -2 -2 -2 -2 -2 -2 -2 -2 -2 -2 -2 -2 -2
-1 -1 -1 -1 -1 -1 -1 -1 -1 -1 -1 -1 -1 -1 -1 -1 -1 -1 -1 -1 -1 -1 -2 -2 -2 -2 -2 -2 -2 -2 -2 -2 -2 -2 -2 -2 -2 -2 -2 -2 -2 -2 -2
-2 -2 -2 -2 -2 -2 -2 -2 -2 -2 -2 -2 -2 -2 -2 -2 -1 -1 -1 -2 -2 -2 -2 -3 -3 -3 -2 -2 -2 -3 -2 -2 -2 -2 -2 -2 -2 -2 -2 -2 -2 -2 -3
-2 -2 -2 -3 -2 -2 -2 -2 -2 -2 -2 -2 -2 -2 -2 -2 -2 -2 -2 -2 -3 -3 -3 -3 -3 -3 -3 -3 -3 -3 -3 -3 -3 -3 -3 -3 -3 -3 -3 -3 -3 -3 -3
Wind_Speed
9 7 8 8 8 8 8 8 7 6 5 3 3 2 2 2 2 3 4 4 4 4 3 2 3 3 2 2 2 2 1 1 1 1 3 4 4 4 3 3 3 4 6
6 6 7 8 9 10 9 8 8 7 6 4 3 2 2 2 2 2 3 4 4 4 3 3 3 3 3 2 2 2 1 1 1 0 1 3 4 3 4 3 4 4 4
11 9 9 8 8 9 10 9 8 7 6 4 3 2 2 1 0 1 2 3 4 4 4 4 3 3 3 3 3 3 3 2 1 1 2 1 3 4 3 3 4 4 4
9 9 10 10 10 9 8 8 7 6 5 5 5 5 3 3 3 3 3 3 3 4 5 4 4 3 3 4 4 3 2 3 2 2 2 3 3 2 4 3 3 5 5
9 10 10 11 9 8 8 7 7 5 5 5 6 5 3 3 2 1 2 3 3 4 4 4 4 3 3 4 4 3 3 3 3 3 2 2 2 3 4 7 6 5 4
7 8 7 7 7 6 6 6 6 5 4 5 5 5 4 3 2 2 3 3 2 3 4 4 4 4 3 4 4 5 4 4 4 3 3 3 3 3 4 6 8 8 6
7 7 7 7 7 7 6 6 6 4 4 4 4 4 4 4 4 4 4 3 3 3 4 3 3 3 4 4 4 4 4 5 5 5 4 4 5 4 4 6 7 8 7
5 6 7 7 7 7 6 6 6 4 4 4 3 2 2 2 3 3 3 4 3 4 4 3 3 4 4 4 4 4 4 4 5 5 5 5 5 5 5 5 6 8 7
4 5 5 6 6 6 5 6 6 4 4 3 2 2 1 2 2 2 2 2 3 3 3 3 4 4 4 4 4 4 5 4 4 5 5 5 5 5 5 5 5 6 9
4 4 4 4 4 4 4 4 5 5 3 3 2 2 1 2 2 1 2 3 3 3 3 3 3 4 4 4 4 4 4 4 5 4 5 6 5 5 4 5 5 6 7
4 4 4 3 4 4 4 3 3 3 2 2 2 1 1 1 1 1 2 3 3 3 3 4 4 4 4 3 3 4 5 5 5 5 6 7 6 5 5 4 5 5 6
4 4 5 5 5 4 4 3 2 2 1 1 1 1 0 0 0 1 2 2 2 2 3 3 3 4 3 3 3 5 5 5 5 6 6 7 6 6 5 4 5 5 6
5 5 5 5 4 4 3 3 2 1 1 1 1 1 1 0 1 2 2 2 2 2 2 2 3 4 4 4 4 4 5 5 5 5 6 6 5 6 5 5 5 5 6
5 5 4 4 3 3 3 3 2 2 1 1 1 1 0 1 1 1 1 2 2 2 2 2 3 3 3 3 3 3 4 4 4 4 5 5 5 6 6 5 6 5 5
4 4 3 3 3 3 3 3 3 2 2 2 1 1 1 1 1 1 2 2 1 2 2 2 2 2 2 3 3 3 4 4 4 4 4 5 6 8 7 6 5 5 5
3 3 3 3 3 3 3 3 3 3 2 2 2 2 2 2 1 2 2 2 2 2 2 2 2 3 3 5 6 5 3 3 4 4 5 5 6 7 8 9 9 8 6
3 3 2 2 1 2 2 3 3 3 3 2 2 2 2 2 2 2 2 2 2 2 2 2 2 3 4 5 6 6 4 3 3 3 4 5 5 7 5 7 8 8 9
3 2 2 1 2 2 3 3 3 3 3 3 3 3 2 2 3 2 2 3 2 2 2 3 3 3 4 6 6 6 4 3 3 3 4 4 5 5 6 5 5 6 6
3 2 1 1 2 2 2 3 3 3 3 3 3 3 3 3 3 3 3 3 2 2 2 2 2 3 4 5 6 6 3 3 4 4 4 4 4 7 8 5 5 5 6
3 2 3 3 3 2 2 3 3 3 3 3 3 3 3 3 3 3 3 3 2 2 3 3 3 3 4 5 5 5 2 3 4 4 4 5 6 7 7 4 4 5 6
3 3 3 3 2 2 3 3 3 3 3 3 3 3 3 3 3 2 2 2 2 2 2 3 3 3 3 5 5 5 2 2 3 4 4 4 6 7 7 5 3 5 6
3 3 3 3 3 3 3 3 3 4 3 3 3 3 3 3 3 2 3 2 1 2 3 3 3 3 3 4 5 6 5 4 3 4 4 4 6 6 7 5 5 6 6
2 2 2 2 3 2 1 1 4 4 3 3 3 3 4 3 3 2 2 2 1 1 2 3 3 4 3 4 6 6 6 6 4 3 5 5 6 6 5 5 7 6 3
1 1 1 2 3 3 2 2 3 3 2 3 3 3 3 4 3 3 2 2 2 2 2 3 3 4 4 4 3 3 4 4 4 4 4 5 6 5 5 5 4 3 3
1 1 1 2 3 3 3 3 3 3 2 3 3 3 3 3 3 3 2 3 2 3 3 3 3 3 4 5 6 4 3 3 3 3 2 2 3 3 3 3 3 3 3
1 1 2 2 3 3 4 4 3 2 2 3 3 3 3 3 2 3 4 5 4 6 6 5 5 4 5 7 7 7 6 5 4 3 2 2 2 3 3 3 3 3 3
Wind_Direction
211 189 179 169 160 160 161 162 157 161 151 145 151 160 192 211 214 203 198 192 193 197 188 200 201 191 199 210 215 227 275 298 321 344 321 310 295 279 275 273 280 286 287
197 181 171 163 164 168 170 168 167 168 169 172 173 173 181 204 222 214 208 200 196 204 199 201 210 204 201 217 218 205 217 288 10 78 337 318 317 306 285 280 279 281 297
193 186 179 177 171 171 173 174 173 171 167 158 134 99 76 55 295 245 244 229 213 212 207 206 209 212 203 212 225 208 199 230 266 177 182 241 270 305 292 277 277 288 290
189 183 179 178 179 179 173 168 168 166 163 156 159 165 180 207 225 229 239 253 232 222 216 211 211 215 218 219 225 218 221 203 237 255 223 222 234 272 301 298 286 284 280
179 179 180 178 175 170 167 164 159 160 162 165 169 172 194 216 232 236 239 252 250 233 224 217 212 216 225 228 228 230 235 220 222 233 244 256 263 247 264 290 298 295 273
167 168 164 153 152 154 152 152 153 161 162 163 168 173 185 200 214 239 237 249 253 244 234 226 215 220 229 235 230 227 229 235 236 239 236 235 242 251 254 275 291 294 290
151 147 146 145 147 150 151 152 153 159 164 163 172 182 190 199 212 226 230 237 245 250 247 237 226 230 229 231 228 230 231 232 232 233 240 242 244 246 251 266 282 288 291
134 142 152 153 154 155 154 155 159 163 166 168 182 186 188 205 227 231 228 231 235 241 244 237 237 237 231 235 232 234 236 237 232 244 243 250 253 246 246 253 271 289 291
116 129 134 142 151 156 159 160 160 160 165 167 168 179 200 216 230 243 235 239 245 249 239 240 243 248 240 236 237 238 238 241 241 245 250 255 259 254 252 250 246 260 285
91 100 110 121 136 146 144 143 150 156 161 157 172 183 214 229 229 234 251 249 250 253 252 255 251 255 254 240 235 242 243 242 251 250 254 260 267 268 260 255 253 246 259
99 92 86 89 102 98 101 109 123 128 137 153 165 163 213 232 230 245 258 253 255 257 254 258 261 263 262 257 248 249 248 249 258 261 261 264 266 269 268 260 259 258 256
95 89 82 75 75 76 77 79 93 111 136 152 147 154 133 32 254 268 275 272 275 273 263 258 263 267 267 263 261 262 259 253 261 267 268 272 275 273 276 268 262 262 260
89 82 76 73 71 68 68 68 70 80 72 103 121 111 67 34 310 298 303 298 289 291 297 270 260 266 270 269 264 263 269 263 261 265 266 272 273 277 277 276 272 269 274
97 87 75 69 65 61 61 59 45 49 54 70 85 75 335 308 297 303 309 311 303 303 310 296 277 272 276 275 271 273 278 280 275 269 267 270 266 268 272 276 273 272 276
96 92 82 65 53 43 34 38 33 23 31 52 44 352 326 334 338 331 323 321 314 307 303 300 303 300 290 278 282 276 278 281 289 287 280 277 275 275 277 279 277 276 275
112 99 82 66 51 40 29 25 19 7 25 43 17 353 350 350 339 323 325 331 323 315 312 296 299 301 297 305 309 308 297 293 291 295 295 288 286 291 294 293 292 286 277
120 111 102 90 57 30 27 14 5 9 26 25 12 5 350 341 323 321 335 325 312 309 311 310 303 298 302 315 320 320 314 297 293 295 300 303 302 303 295 297 301 299 292
120 113 107 77 32 24 21 17 17 24 30 19 12 7 356 342 330 324 319 309 303 304 303 302 300 302 309 322 327 328 327 311 299 296 293 292 297 296 299 297 301 302 303
120 118 112 99 59 36 29 41 27 24 24 10 1 354 350 341 334 324 312 309 310 309 308 312 305 304 309 323 329 330 331 322 310 306 303 297 294 299 306 306 301 304 305
77 74 59 54 43 17 37 52 26 21 1 339 330 329 333 329 317 305 303 306 308 306 312 317 313 299 299 316 330 331 320 316 314 317 313 310 310 313 314 306 299 301 305
65 62 62 52 29 20 45 38 15 348 323 325 332 337 330 319 308 308 310 313 322 325 322 317 315 309 308 318 325 325 319 302 306 311 313 311 317 323 327 322 305 297 302
55 55 53 29 13 24 42 21 344 322 325 336 341 339 331 325 327 321 313 316 322 329 324 321 322 325 326 327 322 322 316 309 302 298 302 305 318 324 325 324 321 322 323
58 56 60 16 2 4 27 341 312 319 332 341 333 329 330 329 322 315 312 317 322 319 316 318 318 322 326 327 329 329 324 317 308 295 302 312 322 327 329 330 327 328 328
48 37 39 11 344 344 353 328 316 326 336 328 321 322 325 328 332 329 326 314 307 305 306 309 308 310 315 321 325 324 324 319 310 304 312 323 332 333 329 329 332 333 324
4 26 5 328 319 327 333 331 325 331 331 319 315 321 323 319 324 327 322 315 293 286 289 282 282 294 301 305 311 312 310 302 285 298 312 327 330 333 332 330 330 329 326
331 335 325 316 314 322 321 321 320 315 308 312 310 308 311 311 316 322 327 333 326 325 320 307 297 295 294 304 311 312 313 313 302 302 302 304 303 303 311 317 321 319 317
Height
1474 1478 1481 1483 1486 1489 1491 1493 1496 1498 1500 1502 1503 1504 1505 1507 1508 1509 1509 1510 1510 1510 1510 1510 1510 1510 1509 1509 1509 1508 1508 1507 1507 1506 1504 1503 1503 1502 1502 1501 1500 1500 1499
1471 1474 1477 1479 1482 1484 1487 1490 1492 1495 1497 1498 1500 1501 1502 1504 1505 1506 1506 1506 1507 1507 1507 1507 1507 1507 1506 1506 1506 1505 1504 1504 1504 1503 1501 1499 1498 1497 1497 1496 1495 1495 1494
1465 1469 1472 1475 1478 1480 1483 1486 1488 1491 1493 1495 1497 1498 1499 1500 1501 1502 1502 1503 1503 1504 1504 1504 1504 1503 1503 1502 1502 1502 1501 1500 1501 1501 1501 1499 1495 1493 1491 1491 1491 1490 1489
1461 1464 1467 1470 1473 1476 1479 1482 1485 1487 1490 1491 1493 1494 1494 1495 1496 1498 1499 1499 1500 1500 1500 1500 1500 1500 1499 1499 1499 1499 1498 1497 1497 1497 1497 1497 1495 1493 1488 1487 1487 1486 1485
1456 1459 1463 1466 1469 1473 1476 1478 1481 1484 1486 1488 1489 1490 1491 1492 1493 1494 1495 1495 1496 1496 1497 1497 1496 1496 1496 1495 1495 1495 1494 1494 1493 1493 1493 1492 1492 1490 1488 1483 1481 1480 1480
1453 1456 1459 1463 1466 1469 1472 1475 1478 1480 1483 1484 1486 1487 1488 1489 1489 1490 1491 1491 1492 1492 1492 1492 1492 1492 1492 1491 1491 1490 1490 1490 1489 1488 1488 1488 1487 1486 1484 1481 1477 1475 1474
1451 1453 1456 1460 1463 1466 1469 1472 1475 1477 1479 1481 1482 1484 1485 1485 1486 1486 1487 1487 1487 1487 1488 1488 1488 1488 1487 1487 1487 1486 1486 1485 1485 1484 1484 1484 1483 1482 1481 1478 1474 1471 1468
1450 1452 1455 1458 1461 1464 1467 1469 1472 1474 1476 1478 1479 1481 1481 1482 1482 1482 1483 1483 1483 1483 1483 1483 1483 1483 1483 1483 1482 1482 1481 1481 1480 1480 1480 1479 1478 1477 1476 1475 1472 1467 1463
1450 1451 1454 1457 1459 1462 1464 1467 1469 1472 1473 1475 1476 1478 1478 1478 1478 1479 1479 1479 1479 1479 1479 1479 1479 1479 1479 1478 1478 1477 1476 1476 1475 1475 1475 1474 1473 1472 1471 1470 1469 1467 1461
1450 1452 1454 1456 1458 1461 1463 1465 1467 1469 1471 1473 1474 1474 1475 1475 1475 1475 1475 1475 1475 1475 1475 1475 1474 1474 1474 1473 1473 1472 1471 1471 1470 1470 1470 1469 1468 1467 1466 1465 1464 1463 1460
1451 1452 1454 1456 1458 1460 1462 1464 1466 1468 1469 1470 1471 1472 1472 1472 1472 1471 1471 1471 1471 1471 1470 1470 1470 1469 1469 1468 1468 1468 1467 1466 1465 1465 1464 1463 1463 1462 1461 1460 1459 1457 1455
1453 1454 1455 1457 1458 1460 1462 1463 1465 1466 1467 1468 1469 1469 1469 1469 1469 1468 1468 1468 1467 1467 1466 1466 1465 1465 1464 1464 1463 1462 1462 1461 1460 1460 1459 1459 1458 1457 1456 1454 1453 1451 1450
1454 1455 1456 1457 1458 1459 1461 1462 1463 1464 1465 1466 1466 1467 1467 1466 1466 1466 1465 1464 1464 1463 1463 1462 1461 1461 1460 1460 1459 1458 1457 1456 1455 1455 1454 1454 1453 1451 1450 1449 1447 1446 1444
1455 1455 1456 1457 1458 1459 1460 1461 1462 1463 1463 1464 1464 1464 1464 1464 1463 1463 1462 1462 1461 1460 1459 1458 1457 1457 1456 1455 1455 1454 1453 1452 1451 1450 1450 1449 1448 1446 1445 1444 1442 1441 1439
1455 1456 1457 1458 1458 1459 1460 1460 1461 1461 1462 1462 1462 1461 1461 1461 1461 1460 1459 1458 1457 1456 1455 1454 1454 1453 1452 1452 1451 1450 1449 1448 1447 1446 1445 1444 1443 1442 1441 1439 1437 1436 1434
1455 1456 1457 1457 1458 1458 1459 1459 1459 1460 1460 1460 1459 1459 1459 1458 1457 1457 1456 1455 1454 1453 1452 1451 1450 1449 1449 1448 1447 1446 1445 1444 1442 1441 1440 1439 1438 1437 1436 1435 1433 1432 1430
1455 1456 1457 1457 1457 1458 1458 1458 1458 1458 1458 1458 1457 1456 1456 1455 1454 1454 1453 1452 1451 1450 1449 1448 1447 1446 1445 1444 1443 1442 1441 1440 1439 1437 1436 1434 1433 1433 1431 1429 1428 1427 1425
1455 1456 1456 1456 1457 1457 1457 1457 1456 1456 1456 1455 1455 1454 1453 1452 1451 1451 1450 1449 1448 1447 1446 1445 1444 1443 1442 1441 1440 1439 1438 1436 1435 1434 1432 1431 1429 1428 1427 1425 1423 1421 1419
1454 1455 1455 1455 1456 1456 1456 1455 1455 1455 1454 1453 1452 1452 1451 1450 1449 1448 1447 1446 1445 1444 1443 1442 1441 1439 1439 1438 1437 1436 1434 1432 1431 1430 1429 1427 1425 1424 1423 1421 1418 1416 1414
1453 1454 1454 1454 1454 1454 1454 1454 1453 1453 1452 1451 1451 1450 1449 1448 1447 1446 1445 1444 1443 1441 1440 1439 1438 1437 1435 1435 1434 1433 1431 1429 1427 1426 1425 1423 1422 1420 1419 1417 1414 1412 1410
1453 1453 1453 1453 1453 1453 1453 1452 1451 1451 1450 1449 1449 1448 1447 1446 1445 1444 1443 1441 1440 1439 1438 1436 1435 1434 1433 1432 1430 1430 1428 1426 1425 1423 1421 1420 1418 1417 1415 1414 1412 1409 1408
1451 1452 1451 1451 1451 1451 1451 1450 1449 1449 1448 1447 1446 1445 1444 1443 1442 1441 1440 1439 1438 1436 1435 1433 1432 1431 1430 1428 1427 1426 1425 1424 1422 1420 1418 1417 1415 1414 1412 1410 1409 1407 1405
1450 1450 1450 1449 1449 1449 1449 1448 1447 1446 1445 1444 1443 1442 1441 1441 1440 1438 1437 1436 1435 1433 1432 1430 1429 1427 1426 1425 1424 1423 1421 1420 1419 1417 1415 1414 1412 1411 1409 1407 1406 1404 1402
1449 1448 1448 1447 1447 1447 1446 1445 1444 1444 1443 1442 1441 1440 1438 1437 1437 1436 1434 1433 1432 1430 1429 1427 1426 1424 1423 1422 1421 1419 1418 1417 1415 1414 1412 1411 1409 1408 1406 1404 1403 1401 1399
1447 1447 1446 1445 1445 1444 1443 1443 1442 1441 1440 1439 1438 1437 1436 1434 1433 1432 1431 1430 1429 1428 1427 1425 1424 1422 1420 1419 1418 1417 1415 1414 1412 1411 1409 1408 1406 1405 1403 1402 1400 1399 1397
1445 1444 1444 1443 1442 1441 1440 1440 1439 1438 1437 1435 1435 1434 1432 1431 1430 1428 1428 1427 1426 1425 1423 1422 1421 1419 1418 1416 1415 1414 1412 1411 1410 1408 1406 1405 1403 1402 1401 1399 1398 1396 1395